Location: Killam
(52.7910°N, 111.8608°W)
Time: 08:48:57
(UTC+00:00)

NOAA 15 - Pass Details

Date: 23 December 2025
Orbit: 793 x 809 km, 98.5° (Epoch: 24 January)

Event Time Altitude Azimuth Distance (km) Brightness Sun altitude
Rises 13:50:25 0° 23° (NNE) 3,313 7.8 -15.0°
Reaches altitude 10° 13:53:12 10° 37° (NE) 2,377 7.3 -14.6°
Maximum altitude 13:57:26 24° 91° (E) 1,585 7.0 -14.0°
Drops below altitude 10° 14:01:39 10° 145° (SE) 2,359 7.9 -13.4°
Sets 14:04:23 0° 159° (SSE) 3,284 8.4 -13.0°
